Location: Old Broadwell Mill Observatory
(33.8015°N, 85.8137°W)
Time: 07:18:04
(UTC-05:00)

Amateur Radio Satellites - All Passes

Search period start: 21 April 2014 06:48
Search period end: 22 April 2014 06:48
Location: Old Broadwell Mill Observatory, 33.8015°N, 85.8137°W

Satellite Date Start Highest point End Downlink Frequencies (MHz)
Time Altitude Azimuth
STRAND 1 21 Apr 07:02:05 07:07:06 57° 259° (W) 07:12:08 ?
MaSat-1 21 Apr 07:20:39 07:23:46 46° 249° (WSW) 07:27:30 437.345 MHz
JAS-2 21 Apr 07:25:30 07:30:53 49° 101° (E) 07:36:52 435.800 - 435.900 CW/SSB, 435.910 FM
Hamsat 21 Apr 07:36:35 07:40:26 31° 288° (WNW) 07:44:18 145.90 MHz
SO-67 21 Apr 07:47:33 07:51:00 58° 100° (E) 07:54:26 435.3500 MHz FM
RS-15 21 Apr 08:18:11 08:28:12 36° 312° (NW) 08:38:01 29.354 - 29.394 USB, Beacon 29.352 USB
PANSAT 21 Apr 08:25:54 08:29:24 32° 172° (S) 08:32:53 not established
PCSat 21 Apr 08:27:14 08:30:42 17° 51° (NE) 08:34:08 145.825 MHz
HO-68 21 Apr 09:06:59 09:13:17 32° 98° (E) 09:19:32 435.675 MHz FM
JAS-2 21 Apr 09:11:51 09:15:41 20° 292° (WNW) 09:19:48 435.800 - 435.900 CW/SSB, 435.910 FM
Oscar 11 21 Apr 09:20:28 09:21:44 11° 92° (E) 09:23:00 145.825 FM, Beacon 2401.500 USB
Sapphire 21 Apr 09:24:31 09:29:46 48° 61° (ENE) 09:34:57 437.095 MHz 1200 baud AX-25 AFSK
KITSAT 1 21 Apr 09:37:15 09:39:32 11° 35° (NE) 09:41:49 435.175 FM
PANSAT 21 Apr 10:05:44 10:09:18 35° 185° (S) 10:12:51 not established
PCSat 21 Apr 10:09:10 10:14:31 62° 248° (WSW) 10:19:50 145.825 MHz
Saudisat 1A 21 Apr 10:16:53 10:21:20 76° 117° (ESE) 10:25:48 436.775 MHz
RS-15 21 Apr 10:42:29 10:45:23 11° 345° (NNW) 10:48:17 29.354 - 29.394 USB, Beacon 29.352 USB
FUNcube-1 21 Apr 10:49:52 10:53:55 39° 99° (E) 10:58:02 145.950 - 145.970 MHz USB
Oscar 11 21 Apr 10:53:56 10:58:09 50° 286° (WNW) 11:02:22 145.825 FM, Beacon 2401.500 USB
HO-68 21 Apr 10:54:21 11:00:57 41° 293° (WNW) 11:07:33 435.675 MHz FM
Sapphire 21 Apr 11:09:07 11:12:45 19° 255° (WSW) 11:16:22 437.095 MHz 1200 baud AX-25 AFSK
KITSAT 1 21 Apr 11:29:08 11:37:01 52° 58° (ENE) 11:44:49 435.175 FM
PANSAT 21 Apr 11:46:14 11:49:06 20° 197° (SSW) 11:51:59 not established
Saudisat 1A 21 Apr 12:00:03 12:01:27 11° 314° (NW) 12:02:51 436.775 MHz
Oscar 19 21 Apr 12:12:27 12:13:37 11° 63° (ENE) 12:14:46 437.125 CW, 437.150 USB
Oscar 16 21 Apr 12:19:26 12:22:07 14° 65° (ENE) 12:24:49 437.025 USB, Beacon 2401.1428
FUNcube-1 21 Apr 12:27:37 12:29:59 15° 292° (WNW) 12:32:23 145.950 - 145.970 MHz USB
Oscar 10/S400 21 Apr 12:53:20 14:26:34 30° 267° (W) 17:52:40 145.825 - 145.975 CW/USB, Beacon 145.810 USB
Uribyol 2 21 Apr 12:57:44 13:01:07 18° 66° (ENE) 13:04:30 436.500 FM
RS-15 21 Apr 12:59:46 13:05:09 14° 25° (NNE) 13:10:32 29.354 - 29.394 USB, Beacon 29.352 USB
ISS 21 Apr 13:09:40 13:12:07 19° 128° (SE) 13:14:35 145.800 FM
KITSAT 1 21 Apr 13:25:15 13:31:58 30° 254° (WSW) 13:38:39 435.175 FM
AO-Echo 21 Apr 13:33:08 13:37:40 30° 71° (ENE) 13:42:06 ?
AO-27 21 Apr 13:37:18 13:42:11 43° 72° (ENE) 13:47:04 436.795 MHz FM
Gurwin Techsat 1B 21 Apr 13:44:10 13:46:56 15° 64° (ENE) 13:49:43 435.225 FM
Oscar 19 21 Apr 13:47:06 13:52:14 78° 258° (WSW) 13:57:24 437.125 CW, 437.150 USB
ITAMSAT 1 21 Apr 13:47:16 13:52:17 54° 73° (ENE) 13:57:19 435.822 SSB
Oscar 16 21 Apr 13:55:54 14:00:56 58° 259° (W) 14:06:01 437.025 USB, Beacon 2401.1428
TMSAT-1 21 Apr 14:29:01 14:33:28 28° 69° (ENE) 14:37:55 436.925 FM
Uribyol 2 21 Apr 14:35:15 14:40:11 46° 260° (W) 14:45:09 436.500 FM
ISS 21 Apr 14:45:40 14:48:41 31° 323° (NW) 14:51:43 145.800 FM
JAS-1B 21 Apr 14:55:32 15:02:37 35° 70° (ENE) 15:08:41 435.800 - 435.900 CW/SSB
OPAL 21 Apr 14:56:17 15:01:02 35° 100° (E) 15:05:45 ?
SO-50 21 Apr 15:01:38 15:06:05 68° 300° (WNW) 15:10:34 436.795 FM
RS-15 21 Apr 15:10:29 15:21:03 50° 54° (NE) 15:31:51 29.354 - 29.394 USB, Beacon 29.352 USB
AO-Echo 21 Apr 15:11:58 15:16:20 27° 263° (W) 15:20:40 ?
AO-27 21 Apr 15:18:19 15:21:50 18° 266° (W) 15:25:21 436.795 MHz FM
Gurwin Techsat 1B 21 Apr 15:21:06 15:26:20 61° 259° (W) 15:31:36 435.225 FM
ITAMSAT 1 21 Apr 15:29:16 15:32:02 15° 267° (W) 15:34:49 435.822 SSB
Uosat F 21 Apr 15:31:51 15:36:33 41° 72° (ENE) 15:41:14 435.120 FM
UOSAT-12 21 Apr 15:35:27 15:36:45 11° 106° (ESE) 15:38:05 437.025 FM, 437.400 FM
AO-7 21 Apr 15:42:15 15:50:03 48° 66° (ENE) 15:57:51 29.400 - 29.500 MHz
TMSAT-1 21 Apr 16:08:41 16:13:15 29° 263° (W) 16:17:50 436.925 FM
OPAL 21 Apr 16:35:32 16:39:41 25° 294° (WNW) 16:43:49 ?
JAS-1B 21 Apr 16:45:24 16:53:03 40° 260° (W) 16:59:36 435.800 - 435.900 CW/SSB
UOSAT-12 21 Apr 17:11:51 17:16:18 60° 301° (WNW) 17:20:53 437.025 FM, 437.400 FM
Uosat F 21 Apr 17:12:02 17:15:26 18° 265° (W) 17:18:52 435.120 FM
RS-15 21 Apr 17:23:09 17:33:06 42° 252° (WSW) 17:43:24 29.354 - 29.394 USB, Beacon 29.352 USB
AO-7 21 Apr 17:35:43 17:42:54 33° 262° (W) 17:50:08 29.400 - 29.500 MHz
JAS-2 21 Apr 17:38:09 17:40:02 12° 65° (ENE) 17:41:52 435.800 - 435.900 CW/SSB, 435.910 FM
SO-67 21 Apr 18:19:50 18:20:57 11° 69° (ENE) 18:22:04 435.3500 MHz FM
Hamsat 21 Apr 18:25:38 18:29:48 72° 259° (W) 18:34:03 145.90 MHz
Saudisat 1A 21 Apr 18:48:14 18:51:34 21° 52° (NE) 18:54:52 436.775 MHz
STRAND 1 21 Apr 19:16:36 19:21:41 68° 102° (ESE) 19:26:44 ?
JAS-2 21 Apr 19:18:41 19:24:38 74° 257° (WSW) 19:30:01 435.800 - 435.900 CW/SSB, 435.910 FM
HO-68 21 Apr 19:33:44 19:37:53 17° 59° (ENE) 19:42:03 435.675 MHz FM
SO-67 21 Apr 19:50:38 19:53:45 31° 262° (W) 19:56:54 435.3500 MHz FM
Saudisat 1A 21 Apr 20:27:16 20:31:13 33° 247° (WSW) 20:35:08 436.775 MHz
STRAND 1 21 Apr 20:58:17 21:00:15 12° 296° (WNW) 21:02:12 ?
ISS 21 Apr 21:17:14 21:20:29 45° 40° (NE) 21:23:43 145.800 FM
HO-68 21 Apr 21:17:34 21:24:42 81° 255° (WSW) 21:31:53 435.675 MHz FM
MaSat-1 21 Apr 21:20:58 21:23:29 24° 295° (WNW) 21:25:46 437.345 MHz
FUNcube-1 21 Apr 21:43:48 21:46:50 20° 70° (ENE) 21:49:52 145.950 - 145.970 MHz USB
Oscar 11 21 Apr 21:44:50 21:49:07 76° 77° (ENE) 21:53:26 145.825 FM, Beacon 2401.500 USB
ISS 21 Apr 22:55:17 22:56:53 13° 234° (SW) 22:58:29 145.800 FM
PCSat 21 Apr 23:04:25 23:09:03 30° 108° (ESE) 23:13:43 145.825 MHz
HO-68 21 Apr 23:12:36 23:13:14 10° 270° (W) 23:13:52 435.675 MHz FM
FUNcube-1 21 Apr 23:19:33 23:23:05 26° 263° (W) 23:26:36 145.950 - 145.970 MHz USB
SO-50 21 Apr 23:37:04 23:41:23 36° 56° (NE) 23:45:44 436.795 FM
Sapphire 22 Apr 00:02:06 00:07:30 82° 296° (WNW) 00:12:57 437.095 MHz 1200 baud AX-25 AFSK
PCSat 22 Apr 00:47:37 00:52:21 31° 303° (WNW) 00:57:08 145.825 MHz
SO-50 22 Apr 01:18:15 01:21:42 20° 250° (WSW) 01:25:10 436.795 FM
UOSAT-12 22 Apr 01:45:14 01:49:40 39° 56° (ENE) 01:54:02 437.025 FM, 437.400 FM
AO-Echo 22 Apr 01:46:46 01:48:07 11° 92° (E) 01:49:28 ?
Sapphire 22 Apr 01:50:23 01:51:44 11° 313° (NW) 01:53:06 437.095 MHz 1200 baud AX-25 AFSK
KITSAT 1 22 Apr 01:52:26 02:00:22 62° 112° (ESE) 02:08:20 435.175 FM
AO-27 22 Apr 01:55:01 01:58:55 21° 95° (E) 02:02:48 436.795 MHz FM
Oscar 19 22 Apr 02:02:48 02:07:53 52° 100° (E) 02:12:55 437.125 CW, 437.150 USB
ITAMSAT 1 22 Apr 02:04:39 02:08:58 26° 97° (E) 02:13:16 435.822 SSB
OPAL 22 Apr 02:07:32 02:12:10 39° 69° (ENE) 02:16:53 ?
Oscar 16 22 Apr 02:11:29 02:16:41 70° 102° (ESE) 02:21:51 437.025 USB, Beacon 2401.1428
TMSAT-1 22 Apr 02:49:49 02:52:47 15° 93° (E) 02:55:44 436.925 FM
Uribyol 2 22 Apr 02:51:41 02:56:53 87° 103° (ESE) 03:02:05 436.500 FM
AO-Echo 22 Apr 03:22:36 03:27:14 56° 286° (WNW) 03:31:48 ?
UOSAT-12 22 Apr 03:26:13 03:29:29 19° 251° (WSW) 03:32:44 437.025 FM, 437.400 FM
AO-27 22 Apr 03:33:45 03:38:28 37° 289° (WNW) 03:43:11 436.795 MHz FM
Gurwin Techsat 1B 22 Apr 03:41:16 03:46:36 76° 102° (ESE) 03:51:53 435.225 FM
Oscar 19 22 Apr 03:43:38 03:46:44 16° 295° (WNW) 03:49:51 437.125 CW, 437.150 USB
ITAMSAT 1 22 Apr 03:43:56 03:48:23 30° 290° (WNW) 03:52:51 435.822 SSB
Uosat F 22 Apr 03:44:36 03:47:51 17° 94° (E) 03:51:05 435.120 FM
OPAL 22 Apr 03:47:34 03:51:09 20° 264° (W) 03:54:47 ?
KITSAT 1 22 Apr 03:49:29 03:56:13 28° 310° (NW) 04:03:00 435.175 FM
AO-7 22 Apr 03:49:48 03:55:09 18° 94° (E) 04:00:28 29.400 - 29.500 MHz
Oscar 16 22 Apr 03:53:23 03:55:23 12° 297° (WNW) 03:57:23 437.025 USB, Beacon 2401.1428
TMSAT-1 22 Apr 04:27:49 04:32:58 54° 287° (WNW) 04:38:05 436.925 FM
JAS-1B 22 Apr 04:33:54 04:39:35 74° 103° (ESE) 04:45:46 435.800 - 435.900 CW/SSB
Uosat F 22 Apr 05:22:05 05:26:47 43° 288° (WNW) 05:31:28 435.120 FM
Gurwin Techsat 1B 22 Apr 05:24:09 05:25:51 12° 297° (WNW) 05:27:33 435.225 FM
RS-15 22 Apr 05:28:52 05:39:31 47° 109° (ESE) 05:49:47 29.354 - 29.394 USB, Beacon 29.352 USB
AO-7 22 Apr 05:40:14 05:48:33 78° 289° (WNW) 05:56:52 29.400 - 29.500 MHz
MaSat-1 22 Apr 05:47:52 05:49:32 13° 63° (ENE) 05:51:19 437.345 MHz
Hamsat 22 Apr 06:15:49 06:19:32 27° 96° (E) 06:23:13 145.90 MHz
PANSAT 22 Apr 06:22:37 06:25:09 17° 161° (SSE) 06:27:40 not established
JAS-1B 22 Apr 06:27:44 06:29:41 12° 298° (WNW) 06:31:39 435.800 - 435.900 CW/SSB
STRAND 1 22 Apr 06:28:39 06:33:42 65° 74° (ENE) 06:38:45 ?
JAS-2 22 Apr 06:32:26 06:35:43 15° 95° (E) 06:39:09 435.800 - 435.900 CW/SSB, 435.910 FM
